Location: Karlovy Vary
(50.2170°N, 12.9000°E)
Time: 01:14:29
(UTC+02:00)

ISS - Visible Passes

Search period start: 06 May 2021 00:00
Search period end: 16 May 2021 00:00
Orbit: 418 x 421 km, 51.6° (Epoch: 05 May)

Date Brightness Start Highest point End Pass type
(mag) Time Alt. Az. Time Alt. Az. Time Alt. Az.
06 May -3.2 02:48:19 47° SE 02:48:19 47° SE 02:51:12 10° ENE visible
06 May -3.5 04:21:19 10° W 04:24:42 70° N 04:28:04 10° ENE visible
07 May -1.7 02:02:24 20° E 02:02:24 20° E 02:03:42 10° E visible
07 May -3.7 03:35:20 24° W 03:37:14 78° NNW 03:40:38 10° ENE visible
08 May -3.9 02:49:24 68° WSW 02:49:47 88° SSE 02:53:11 10° ENE visible
08 May -3.4 04:23:21 10° W 04:26:44 67° N 04:30:06 10° E visible
09 May -2.8 02:03:25 40° E 02:03:25 40° E 02:05:44 10° ENE visible
09 May -3.4 03:36:22 13° W 03:39:15 66° N 03:42:37 10° E visible
10 May -1.4 01:17:26 16° E 01:17:26 16° E 01:18:16 10° ENE visible
10 May -3.5 02:50:21 32° W 02:51:46 70° N 02:55:09 10° ENE visible
10 May -3.7 04:25:20 10° WNW 04:28:43 85° NNE 04:32:07 10° ESE visible
11 May -3.7 02:04:19 78° N 02:04:19 78° N 02:07:41 10° ENE visible
11 May -3.6 03:37:53 10° WNW 03:41:15 74° N 03:44:38 10° E visible
12 May -2.4 01:18:14 33° ENE 01:18:14 33° ENE 01:20:13 10° ENE visible
12 May -3.5 02:51:09 16° WNW 02:53:46 67° N 02:57:08 10° E visible
12 May -3.7 04:27:16 10° WNW 04:30:36 59° SSW 04:33:56 10° SE visible
13 May -1.4 00:32:03 15° ENE 00:32:03 15° ENE 00:32:46 10° ENE visible
13 May -3.4 02:04:58 33° WNW 02:06:17 66° N 02:09:39 10° E visible
13 May -3.9 03:39:48 10° WNW 03:43:11 78° SSW 03:46:34 10° ESE visible
14 May -3.5 01:18:34 66° NW 01:18:47 69° N 01:22:09 10° ENE visible
14 May -3.8 02:52:21 10° WNW 02:55:44 85° NNE 02:59:07 10° ESE visible
14 May -2.9 04:29:20 10° W 04:32:20 30° SSW 04:35:20 10° SSE visible
14 May -3.3 22:51:29 10° SW 22:54:37 37° SSE 22:57:45 10° E visible
15 May -3.7 00:27:56 10° W 00:31:18 78° NNW 00:34:41 10° ENE visible
15 May -3.6 02:04:53 10° WNW 02:08:15 74° N 02:11:39 10° E visible
15 May -3.4 03:41:46 10° W 03:44:59 42° SSW 03:48:12 10° SE visible
15 May -2.8 22:04:25 10° SSW 22:07:17 26° SE 22:10:09 10° E visible
15 May -3.9 23:40:27 10° WSW 23:43:50 88° SSE 23:47:13 10° ENE visible
